Location: New York
(40.7127°N, 74.0060°W)
Time: 16:17:46
(UTC-04:00)

STARS - Visible Passes

Search period start: 22 April 2024 00:00
Search period end: 02 May 2024 00:00
Orbit: 608 x 620 km, 98.1° (Epoch: 22 April)

Date Brightness Start Highest point End Pass type
(mag) Time Alt. Az. Time Alt. Az. Time Alt. Az.
22 Apr ? 00:59:53 10° NNE 01:00:41 15° NNE 01:00:41 15° NNE visible
23 Apr ? 01:15:20 10° N 01:16:22 17° N 01:16:22 17° N visible
24 Apr ? 01:30:52 10° N 01:32:02 18° N 01:32:02 18° N visible
25 Apr ? 01:46:29 10° N 01:47:40 17° NNW 01:47:40 17° NNW visible
26 Apr ? 00:25:48 10° NNE 00:26:14 12° NE 00:26:14 12° NE visible
26 Apr ? 02:02:14 10° NNW 02:03:16 15° NNW 02:03:16 15° NNW visible
27 Apr ? 00:40:55 10° NNE 00:41:49 16° NNE 00:41:49 16° NNE visible
27 Apr ? 02:18:12 10° NNW 02:18:52 12° NW 02:18:52 12° NW visible
28 Apr ? 00:56:08 10° NNE 00:57:23 19° NNE 00:57:23 19° NNE visible
29 Apr ? 01:11:26 10° N 01:12:56 21° N 01:12:56 21° N visible
30 Apr ? 01:26:48 10° N 01:28:28 22° N 01:28:28 22° N visible
01 May ? 00:06:53 10° NE 00:06:56 10° NE 00:06:56 10° NE visible
01 May ? 01:42:15 10° N 01:43:58 21° NNW 01:43:58 21° NNW visible
